MARECS B2

导读

MARECS B2是欧洲空间局(ESA)于1984年11月10日发射的海事通信卫星。它彻底革新了海对地通信方式,在无数海上搜救行动中发挥关键作用。卫星设计寿命仅7年,却超期服役至2002年才进入退役轨道,其镍基电池超期工作11年后仍保持全功能运行,展现出优异的可靠性与超长使用寿命。

基本信息
目录编号:
15386
目录名称:
MARECS B2
国际标识:
1984-114B
轨道中心:
EARTH
卫星名称:
MARECS B2
卫星全名:
--
卫星状态:
在轨 (已飞行15221 天)
发射日期:
1984-11-10 UTC
国别 :
(ESA)
星等 :
--
轨道信息
数据来源 国际轨道数据 AOE轨道数据
星历时间 2026-07-14T07:08:40+0800
9小时前
查看轨道信息
2026-07-09T12:00:00+0800
5天前
查看轨道信息
半长轴 43427.934km 43427.723km
偏心率 0.0112217 0.0112457
轨道倾角 13.457° 13.463°
近地点辐角 56.200° 55.930°
升交点赤经 332.752° 332.785°
平近点角 126.376° 269.742°
近地点 36562.461km 36561.21km
远地点 37537.133km 37537.962km
周期 1501.113分钟 1501.102分钟
每日圈数 0.959288 0.959295
详细信息
使用方式:
暂无
2D轨道图
3D轨道图
轨道高度分析图
轨道倾角分析图
轨道综合分析图
查看轨道综合分析图